When you browse on this site, cookies collect data to enhance your experience and personalize the content and advertising you see.
Visit our Privacy Policy to learn more. By continuing to use the site, you agree to this use of cookies and data.
  • In Netherlands
  • List of Countries
  • For 7 days
  • Water Temperature
  • Satellite Maps
  • Weather Map
  • Weather Widgets
  • user-avatar
    Login

    Hourly Weather Yerevan

    Today, 19 January, Saturday

    Time Temperature Precipitation Wind Pressure Humidity
    00:00 -1°C° 0 mm 1 mps 693 mmHg 48%
    01:00 -1°C° 0 mm 1 mps 693 mmHg 48%
    02:00 -1°C° 0 mm 1 mps 693 mmHg 47%
    03:00 -2°C° 0 mm 1 mps 693 mmHg 48%
    04:00 -2°C° 0 mm 1 mps 692 mmHg 47%
    05:00 -4°C° 0 mm 2 mps 692 mmHg 47%
    06:00 -4°C° 0 mm 2 mps 692 mmHg 46%
    07:00 -3°C° 0 mm 2 mps 692 mmHg 44%
    08:00 0°C° 0 mm 1 mps 693 mmHg 42%
    09:00 +1°C° 0 mm 1 mps 693 mmHg 39%
    10:00 +2°C° 0 mm 1 mps 692 mmHg 37%
    11:00 +3°C° 0 mm 1 mps 692 mmHg 35%
    12:00 +4°C° 0 mm 1 mps 692 mmHg 32%
    13:00 +4°C° 0 mm 1 mps 691 mmHg 32%
    14:00 +5°C° 0 mm 1 mps 691 mmHg 32%
    15:00 +5°C° 0 mm 1 mps 691 mmHg 32%
    16:00 +4°C° 0 mm 1 mps 691 mmHg 34%
    17:00 +3°C° 0 mm 1 mps 692 mmHg 37%
    18:00 -1°C° 0 mm 2 mps 692 mmHg 39%
    19:00 -1°C° 0 mm 2 mps 693 mmHg 39%
    20:00 -2°C° 0 mm 2 mps 693 mmHg 39%
    21:00 -2°C° 0 mm 2 mps 693 mmHg 38%
    22:00 -2°C° 0 mm 2 mps 693 mmHg 38%
    23:00 -2°C° 0 mm 2 mps 693 mmHg 37%

    Tomorrow, 20 January, Sunday

    Time Temperature Precipitation Wind Pressure Humidity
    00:00 -3°C° 0 mm 2 mps 693 mmHg 36%
    01:00 -3°C° 0 mm 2 mps 693 mmHg 36%
    02:00 -1°C° 0 mm 1 mps 693 mmHg 36%
    03:00 -1°C° 0 mm 1 mps 694 mmHg 35%
    04:00 -1°C° 0 mm 1 mps 694 mmHg 35%
    05:00 -1°C° 0 mm 1 mps 693 mmHg 34%
    06:00 -1°C° 0 mm 1 mps 693 mmHg 34%
    07:00 0°C° 0 mm 1 mps 694 mmHg 33%
    08:00 +1°C° 0 mm 1 mps 694 mmHg 31%
    09:00 +2°C° 0 mm 1 mps 694 mmHg 30%
    10:00 +3°C° 0 mm 1 mps 694 mmHg 28%
    11:00 +3°C° 0 mm 1 mps 694 mmHg 26%
    12:00 +4°C° 0 mm 1 mps 693 mmHg 25%
    13:00 +5°C° 0 mm 1 mps 693 mmHg 25%
    14:00 +5°C° 0 mm 1 mps 693 mmHg 25%
    15:00 +5°C° 0 mm 1 mps 693 mmHg 25%
    16:00 +4°C° 0 mm 1 mps 693 mmHg 27%
    17:00 +3°C° 0 mm 1 mps 693 mmHg 29%
    18:00 +1°C° 0 mm 2 mps 693 mmHg 31%
    19:00 -1°C° 0 mm 2 mps 694 mmHg 32%
    20:00 -1°C° 0 mm 2 mps 694 mmHg 33%
    21:00 -2°C° 0 mm 2 mps 694 mmHg 34%
    22:00 -2°C° 0 mm 2 mps 694 mmHg 34%
    23:00 0°C° 0 mm 1 mps 694 mmHg 34%

    Day after tomorrow, 21 January, Monday

    Time Temperature Precipitation Wind Pressure Humidity
    00:00 -1°C° 0 mm 1 mps 694 mmHg 35%
    01:00 -1°C° 0 mm 1 mps 694 mmHg 35%
    02:00 -1°C° 0 mm 1 mps 694 mmHg 35%
    03:00 -1°C° 0 mm 1 mps 694 mmHg 36%
    04:00 -1°C° 0 mm 1 mps 694 mmHg 36%
    05:00 -1°C° 0 mm 1 mps 694 mmHg 36%
    06:00 -2°C° 0 mm 1 mps 694 mmHg 36%
    07:00 -1°C° 0 mm 1 mps 694 mmHg 35%
    08:00 0°C° 0 mm 1 mps 694 mmHg 34%
    09:00 +1°C° 0 mm 1 mps 695 mmHg 32%
    10:00 +2°C° 0 mm 1 mps 694 mmHg 30%
    11:00 +3°C° 0 mm 1 mps 693 mmHg 28%
    12:00 +4°C° 0 mm 1 mps 693 mmHg 26%
    13:00 +4°C° 0 mm 1 mps 692 mmHg 26%
    14:00 +5°C° 0 mm 1 mps 692 mmHg 26%
    15:00 +5°C° 0 mm 1 mps 691 mmHg 26%
    16:00 +4°C° 0 mm 1 mps 692 mmHg 28%
    17:00 +2°C° 0 mm 2 mps 692 mmHg 30%
    18:00 -1°C° 0 mm 2 mps 692 mmHg 33%
    19:00 -1°C° 0 mm 2 mps 692 mmHg 34%
    20:00 -2°C° 0 mm 2 mps 692 mmHg 35%
    21:00 0°C° 0 mm 1 mps 692 mmHg 37%
    22:00 0°C° 0 mm 1 mps 692 mmHg 37%
    23:00 0°C° 0 mm 1 mps 692 mmHg 38%

    22 January, Tuesday

    Time Temperature Precipitation Wind Pressure Humidity
    00:00 -1°C° 0 mm 1 mps 692 mmHg 39%
    01:00 -1°C° 0 mm 1 mps 692 mmHg 39%
    02:00 -1°C° 0 mm 1 mps 692 mmHg 40%
    03:00 -1°C° 0 mm 1 mps 692 mmHg 40%
    04:00 -2°C° 0 mm 1 mps 692 mmHg 40%
    05:00 -2°C° 0 mm 1 mps 692 mmHg 40%
    06:00 -2°C° 0 mm 1 mps 692 mmHg 40%
    07:00 -1°C° 0 mm 1 mps 692 mmHg 38%
    08:00 0°C° 0 mm 1 mps 692 mmHg 37%
    09:00 +1°C° 0 mm 1 mps 692 mmHg 35%
    10:00 +2°C° 0 mm 1 mps 692 mmHg 33%
    11:00 +3°C° 0 mm 1 mps 691 mmHg 31%
    12:00 +4°C° 0 mm 1 mps 691 mmHg 29%
    13:00 +4°C° 0 mm 1 mps 690 mmHg 30%
    14:00 +5°C° 0 mm 1 mps 690 mmHg 30%
    15:00 +5°C° 0 mm 1 mps 689 mmHg 30%
    16:00 +4°C° 0 mm 1 mps 690 mmHg 32%
    17:00 +3°C° 0 mm 1 mps 690 mmHg 35%
    18:00 +1°C° 0 mm 2 mps 690 mmHg 37%
    19:00 -1°C° 0 mm 2 mps 691 mmHg 38%
    20:00 -1°C° 0 mm 2 mps 691 mmHg 39%
    21:00 -1°C° 0 mm 2 mps 691 mmHg 40%
    22:00 -2°C° 0 mm 2 mps 691 mmHg 40%
    23:00 -2°C° 0 mm 2 mps 691 mmHg 40%

    23 January, Wednesday

    Time Temperature Precipitation Wind Pressure Humidity
    00:00 0°C° 0 mm 1 mps 691 mmHg 41%
    01:00 0°C° 0 mm 1 mps 691 mmHg 41%
    02:00 -1°C° 0 mm 1 mps 691 mmHg 41%
    03:00 -1°C° 0 mm 1 mps 691 mmHg 41%
    04:00 -1°C° 0 mm 1 mps 691 mmHg 41%
    05:00 -1°C° 0 mm 1 mps 691 mmHg 41%
    06:00 -1°C° 0 mm 1 mps 691 mmHg 41%
    07:00 0°C° 0 mm 1 mps 691 mmHg 39%
    08:00 +1°C° 0 mm 1 mps 692 mmHg 37%
    09:00 +1°C° 0 mm 1 mps 692 mmHg 35%
    10:00 +3°C° 0 mm 1 mps 692 mmHg 34%
    11:00 +3°C° 0 mm 2 mps 692 mmHg 33%
    12:00 +4°C° 0 mm 2 mps 691 mmHg 33%
    13:00 +4°C° 0 mm 2 mps 691 mmHg 33%
    14:00 +4°C° 0 mm 2 mps 691 mmHg 34%
    15:00 +5°C° 0 mm 2 mps 690 mmHg 34%
    16:00 +4°C° 0 mm 2 mps 691 mmHg 37%
    17:00 +3°C° 0 mm 2 mps 691 mmHg 40%
    18:00 +1°C° 0 mm 2 mps 692 mmHg 42%
    19:00 +1°C° 0 mm 2 mps 692 mmHg 43%
    20:00 +1°C° 0 mm 2 mps 692 mmHg 45%
    21:00 -1°C° 0 mm 2 mps 693 mmHg 46%
    22:00 -1°C° 0 mm 2 mps 693 mmHg 47%
    23:00 -1°C° 0 mm 2 mps 693 mmHg 48%

    24 January, Thursday

    Time Temperature Precipitation Wind Pressure Humidity
    00:00 0°C° 0 mm 1 mps 693 mmHg 49%
    01:00 0°C° 0 mm 1 mps 693 mmHg 50%
    02:00 0°C° 0 mm 1 mps 692 mmHg 51%
    03:00 0°C° 0 mm 1 mps 692 mmHg 51%
    04:00 0°C° 0 mm 1 mps 692 mmHg 51%
    05:00 -2°C° 0 mm 2 mps 692 mmHg 52%
    06:00 -2°C° 0 mm 2 mps 692 mmHg 52%
    07:00 -2°C° 0 mm 2 mps 692 mmHg 50%
    08:00 -1°C° 0 mm 2 mps 693 mmHg 48%
    09:00 +1°C° 0 mm 2 mps 693 mmHg 45%
    10:00 +2°C° 0 mm 2 mps 692 mmHg 44%
    11:00 +4°C° 0 mm 2 mps 692 mmHg 42%
    12:00 +5°C° 0 mm 2 mps 691 mmHg 41%
    13:00 +4°C° 0 mm 3 mps 691 mmHg 41%
    14:00 +4°C° 0 mm 3 mps 690 mmHg 41%
    15:00 +5°C° 0 mm 3 mps 690 mmHg 41%
    16:00 +4°C° 0 mm 3 mps 690 mmHg 44%
    17:00 +3°C° 0 mm 3 mps 690 mmHg 47%
    18:00 +2°C° 0 mm 3 mps 690 mmHg 50%
    19:00 +1°C° 0 mm 3 mps 690 mmHg 51%
    20:00 +1°C° 0 mm 3 mps 690 mmHg 52%
    21:00 +2°C° 0 mm 2 mps 690 mmHg 53%
    22:00 +2°C° 0 mm 2 mps 690 mmHg 55%
    23:00 +1°C° 0 mm 2 mps 690 mmHg 56%
    Show more